Theta_e
337 338 340 340 341 342 344 346 348 349 350 351 353 353 355 357 358 351 351 355 351 349 349 351 359 360 362 363 365 364 364 361 360
333 337 339 340 341 342 344 346 348 348 350 352 352 352 354 355 356 356 353 357 357 351 356 351 355 358 359 361 363 364 365 361 361
329 335 337 341 342 344 346 346 348 350 351 352 352 352 353 353 355 356 356 356 356 357 355 355 353 356 357 359 361 363 364 360 363
326 330 334 338 342 346 346 346 348 348 349 351 351 352 353 354 354 354 354 353 354 356 356 356 356 357 357 358 358 360 362 361 360
325 330 332 336 339 343 345 347 347 347 348 348 350 352 353 353 355 356 353 354 354 355 355 356 356 357 358 358 358 360 360 358 357
324 331 333 335 337 341 344 347 348 348 348 347 349 351 350 352 354 353 355 355 356 355 356 356 355 356 355 356 357 358 360 360 359
317 328 332 335 336 338 343 346 348 349 349 347 348 349 350 352 353 355 355 357 357 355 356 356 356 356 357 357 357 357 357 358 360
319 319 331 335 335 339 341 343 348 349 350 350 350 350 350 352 354 356 357 357 357 355 356 357 358 358 357 356 355 353 357 358 360
325 327 325 332 337 340 341 341 345 348 349 349 351 351 351 354 355 356 356 357 357 357 355 355 356 355 356 355 353 339 337 351 356
321 326 331 331 331 341 342 341 345 346 349 351 350 351 352 354 355 355 356 357 357 358 358 357 357 355 355 356 357 333 332 337 355
319 323 328 334 337 331 341 342 342 348 349 350 350 350 351 354 355 355 356 356 355 357 355 357 358 357 358 357 358 332 329 333 353
318 322 329 336 342 330 341 342 347 348 349 349 349 350 351 352 354 355 356 355 356 357 355 354 355 356 358 358 359 329 327 333 352
318 325 332 342 340 337 339 344 344 348 346 349 349 351 352 354 355 355 355 357 358 359 357 356 355 355 357 347 359 332 324 331 351
322 328 334 345 342 341 346 348 348 347 349 348 351 351 353 356 357 356 358 358 360 360 358 359 358 358 360 359 355 356 323 320 353
317 322 328 339 343 342 344 348 348 348 349 353 356 356 354 357 358 356 355 360 359 359 359 359 359 357 358 359 363 335 327 320 322
311 313 315 322 330 332 337 349 348 346 350 352 355 356 357 357 359 357 360 359 358 356 358 355 356 355 355 356 360 364 326 319 318
312 311 312 314 318 319 324 330 334 340 351 353 351 353 354 355 355 356 358 356 356 355 355 355 355 355 355 357 360 362 364 356 341
314 315 314 313 313 314 317 323 327 328 336 353 353 351 350 351 351 354 355 357 355 356 361 350 356 357 358 357 358 359 346 348 363
312 315 316 313 313 313 315 318 321 325 327 332 344 348 353 349 354 354 353 352 350 308 311 307 306 308 331 358 331 319 314 310 311
311 314 317 316 316 316 316 318 321 324 327 326 327 332 339 343 342 355 350 353 352 351 326 304 303 304 304 305 316 307 306 306 303
Wind_Speed
20 23 23 26 26 24 24 24 23 22 21 19 19 19 18 15 16 12 12 13 11 10 9 9 9 10 9 9 8 7 6 5 5
19 24 25 27 28 27 25 23 24 23 21 20 19 19 16 16 15 15 13 14 12 10 9 8 10 10 10 10 10 9 8 7 7
19 21 24 24 25 26 23 25 23 23 22 21 21 20 17 15 17 16 15 13 13 12 10 10 10 11 10 10 10 10 9 8 8
21 22 24 25 24 24 25 23 23 23 22 22 20 20 19 18 16 17 15 14 14 13 12 11 12 11 11 11 11 10 10 10 10
21 22 23 23 23 23 24 24 23 24 23 22 21 20 18 18 17 16 17 16 16 15 14 13 13 12 12 11 11 10 11 11 11
13 17 16 16 19 22 22 24 23 23 23 24 23 20 20 19 18 17 17 17 15 15 14 14 14 13 13 13 12 11 11 12 12
9 11 15 17 18 20 20 21 21 21 22 23 22 21 21 19 19 19 18 16 15 16 15 14 14 14 14 13 13 13 13 13 13
5 5 12 17 20 18 20 20 20 20 20 20 20 20 20 20 19 18 17 15 16 16 15 14 14 14 15 15 14 12 15 15 14
9 7 9 14 19 19 20 22 22 22 22 22 20 20 20 19 18 17 17 16 16 15 16 15 14 15 15 15 13 15 15 14 14
11 11 10 14 18 19 20 23 22 24 24 20 20 20 19 18 18 18 17 16 16 16 17 15 15 16 16 16 16 14 16 17 15
11 13 14 15 15 19 22 22 22 17 21 20 20 20 19 18 19 18 16 16 17 16 15 15 14 15 16 15 14 13 16 16 17
13 13 14 17 17 19 15 19 19 19 20 20 20 20 20 19 18 17 17 17 16 14 14 14 14 15 16 16 16 16 17 15 17
13 12 11 14 15 15 18 18 22 20 20 20 21 21 20 17 17 17 17 16 17 15 15 15 14 16 16 17 17 14 18 18 13
9 10 12 7 8 13 15 16 18 19 19 21 18 17 17 17 17 18 17 16 14 14 14 13 14 15 14 16 16 16 18 20 15
14 16 19 17 13 11 10 13 16 15 14 12 13 15 16 16 16 14 14 15 13 14 13 13 13 13 13 12 14 16 15 20 23
14 17 17 16 16 19 18 14 8 10 8 11 14 15 15 15 14 14 13 14 14 12 13 12 12 11 11 10 10 12 19 17 20
12 14 15 14 19 20 19 16 16 13 9 5 12 12 13 12 14 14 13 12 12 12 12 12 12 11 11 11 10 10 10 10 10
10 10 11 12 14 14 15 15 16 16 16 10 6 7 8 8 9 11 11 11 9 11 11 10 11 11 10 10 10 10 11 10 9
10 8 9 12 12 13 12 12 13 14 14 13 10 9 6 6 4 5 8 9 7 6 6 4 2 2 6 9 10 5 13 13 12
9 9 11 12 11 11 11 11 12 11 12 13 12 8 7 3 7 5 5 6 5 6 3 2 3 6 8 8 9 5 10 11 6
Wind_Direction
205 205 206 204 202 199 199 197 191 193 192 196 194 197 199 201 201 208 214 211 218 223 224 219 203 203 211 214 221 213 211 231 234
202 205 205 206 203 199 196 195 196 191 191 194 195 199 201 201 202 208 213 215 211 217 219 219 216 210 212 217 221 221 218 232 239
210 208 210 208 203 202 198 196 194 189 193 192 191 198 200 203 202 204 207 208 211 209 209 210 207 212 214 219 220 222 222 227 230
218 212 210 208 203 200 198 193 191 193 193 192 193 195 198 202 208 206 205 209 212 209 200 200 205 211 213 220 223 220 221 233 240
217 217 213 209 203 198 198 196 192 193 193 194 193 195 197 199 203 204 204 208 209 208 202 200 205 211 213 217 224 222 222 230 236
230 223 219 207 201 196 195 195 194 194 193 197 196 192 195 199 201 202 203 207 206 206 205 203 205 211 214 216 222 222 223 230 234
268 225 209 201 200 199 195 196 195 193 194 197 195 192 195 197 198 200 206 203 200 203 206 204 203 208 214 214 219 227 231 230 233
253 220 201 201 202 195 194 192 193 193 194 191 191 191 191 196 199 201 201 201 199 201 208 209 206 207 216 217 220 225 225 227 229
294 279 257 222 212 202 194 193 192 190 191 190 185 189 192 192 194 197 198 197 197 198 205 211 210 212 216 217 222 220 211 222 228
311 301 279 259 234 209 198 195 190 189 187 180 185 187 190 189 190 194 198 197 195 200 204 206 213 214 217 221 223 212 209 209 232
313 304 295 280 261 229 206 200 194 182 178 180 182 186 190 188 190 193 193 195 198 201 202 207 210 216 219 223 227 204 208 208 228
325 313 300 281 261 238 201 194 179 176 175 177 182 190 191 189 188 190 190 196 198 199 200 206 212 216 218 221 229 201 204 199 227
334 326 303 281 246 196 181 181 172 169 175 179 188 189 189 184 184 189 193 194 197 198 201 209 212 219 220 220 227 206 202 199 228
359 2 1 357 183 169 163 160 164 170 175 192 189 182 182 181 185 190 193 194 196 197 202 211 213 220 222 225 222 228 201 197 220
24 33 35 45 63 89 118 145 161 170 178 175 175 175 179 183 184 191 194 195 193 200 202 211 215 221 228 227 229 220 210 203 209
17 32 43 47 65 68 56 60 127 135 143 178 175 177 184 185 186 193 192 193 194 198 203 214 215 219 227 229 225 228 214 207 207
19 22 29 32 48 51 52 51 55 46 41 184 181 184 186 184 187 189 194 194 197 203 203 208 215 214 221 225 226 225 230 214 213
18 20 16 29 41 46 45 39 41 32 38 44 114 167 182 187 199 196 197 206 206 206 211 211 211 217 216 221 223 223 220 222 215
10 16 16 24 29 35 32 33 39 36 30 30 47 66 91 93 92 188 201 201 207 39 40 85 44 311 257 225 237 207 205 218 226
353 12 21 20 16 24 20 19 28 26 32 22 25 22 22 265 102 20 280 146 233 214 185 118 191 232 244 239 276 265 239 229 216